Weather in Borozdinka

Russia / Kurgan Oblast     54°54′12″N   62°55′37″E
temp.,
°C
wind,
m/s
gust,
m/s
humid.,
%
clouds,
%
prec.,
mm/h
press.,
hPa
HPBL,
m
11 may, tue
tue1123:00+12ene34415 0.0 102549
02:00+10e334717 0.0 102633
05:00+9e33505 0.0 102721
08:00+14ese23400 0.0 1028274
11:00+18ese22281 0.0 10281424
14:00+21se11235 0.0 10281715
17:00+22wsw112195 0.0 10271833
20:00+18nnw1130100 0.0 102811
12 may, wed
wed1223:00+16nne1133100 0.0 102811
02:00+14wsw22365 0.0 102810
05:00+12w33435 0.0 102819
08:00+17wnw34365 0.0 1029269
11:00+22wnw45275 0.0 10281224
14:00+25nw553022 0.0 10272258
17:00+25nnw563351 0.0 10262440
20:00+21nne4845100 0.0 1026216
13 may, thu
thu1323:00+18ne223998 0.0 102726
02:00+15nne114827 0.0 102711
05:00+14nnw225389 0.0 102711
08:00+19nw344021 0.0 1027280
11:00+23nw453358 0.0 10261358
14:00+25nnw563111 0.0 10252086
17:00+26nnw67285 0.0 10252132
20:00+22nnw33435 0.0 102525
14 may, fri
fri1423:00+18n33525 0.0 102639
02:00+17ene33605 0.0 102635
05:00+15ese33685 0.0 102824
08:00+20se235230 0.0 1028309
11:00+24sse223989 0.0 10281367
14:00+27sw22302 0.0 10262461
17:00+28wsw24276 0.0 10252786
20:00+24ssw333754 0.0 102422
15 may, sat
sat1523:00+22ssw33399 0.2 102456
02:00+21sw224423 0.1 102319
05:00+18nw22525 0.1 102416
08:00+22nw34434 0.0 1024238
11:00+27nw34333 0.0 10231272
14:00+29wnw4528100 0.0 10222925
17:00+28nw552866 0.0 10202743
20:00